Sparta, IL

12:05 PM CDT on October 20, 2019 (GMT -0500)
Sparta Community-Hunter

Weather History for KSAR - August, 2019

Change the Weather History Date:

Friday, August 16, 2019

  Actual Average (KBLV) Record (KBLV)
Temperature  
Mean Temperature 76 °F -  
Max Temperature 84 °F 87 °F 99 °F (1988)
Min Temperature 67 °F 66 °F 50 °F (1992)
Cooling Degree Days 10    
Growing Degree Days 26 (Base 50)    
Moisture  
Dew Point 68 °F    
Average Humidity 81    
Maximum Humidity 98    
Minimum Humidity 59    
Precipitation  
Precipitation 0.00 in - - ()
Sea Level Pressure  
Sea Level Pressure 29.97 in    
Wind  
Wind Speed 4 mph (South)    
Max Wind Speed 8 mph    
Max Gust Speed -    
Visibility 10 miles    
Events      
Averages and records for this station are not official NWS values.
T = Trace of Precipitation, MM = Missing Value Source: NWS Daily Summary

Daily Weather History Graph

Daily Weather History Graph

Search for Another Location

Airport or City:

Astronomy

Aug. 16, 2019 Rise Set
Actual Time 6:14 AM CDT 7:51 PM CDT
Civil Twilight 5:46 AM CDT 8:19 PM CDT
Nautical Twilight 5:12 AM CDT 8:52 PM CDT
Astronomical Twilight 4:36 AM CDT 9:28 PM CDT
Moon 8:51 PM CDT (8/16) 7:06 AM CDT (8/16)
Length of Visible Light 14h 32m
Length of Day
13h 36m
Full, 99% of the Moon is Illuminated
Aug 16
Full
Aug 23
Last Quarter
Aug 30
New
Sep 5
First Quarter
Sep 13
Full

Hourly Weather History & Observations

Time (CDT) Temp. Heat Index Dew Point Humidity Pressure Visibility Wind Dir Wind Speed Gust Speed Precip Events Conditions
12:15 AM 67.1 °F - 65.7 °F 95% 30.03 in 10.0 mi Calm Calm - N/A   Clear
12:35 AM 67.3 °F - 65.7 °F 95% 30.02 in 10.0 mi ESE 3.5 mph - N/A   Clear
12:55 AM 67.1 °F - 65.7 °F 95% 30.03 in 10.0 mi Calm Calm - N/A   Clear
1:15 AM 67.5 °F - 66.2 °F 96% 30.01 in 10.0 mi SE 4.6 mph - N/A   Clear
1:35 AM 68.0 °F - 65.8 °F 93% 30.01 in 10.0 mi SSE 3.5 mph - N/A   Clear
1:55 AM 68.2 °F - 65.7 °F 92% 29.99 in 10.0 mi SE 4.6 mph - N/A   Clear
2:15 AM 68.4 °F - 65.7 °F 91% 29.99 in 10.0 mi SSE 4.6 mph - N/A   Clear
2:35 AM 67.6 °F - 65.8 °F 94% 29.99 in 10.0 mi SE 3.5 mph - N/A   Clear
2:55 AM 68.0 °F - 66.2 °F 94% 29.99 in 10.0 mi SSE 3.5 mph - N/A   Clear
3:15 AM 68.0 °F - 66.2 °F 94% 29.99 in 10.0 mi SSE 4.6 mph - N/A   Scattered Clouds
3:35 AM 68.4 °F - 66.2 °F 93% 29.97 in 10.0 mi SSE 4.6 mph - N/A   Scattered Clouds
3:55 AM 68.4 °F - 65.8 °F 92% 29.96 in 10.0 mi SSE 6.9 mph - N/A   Clear
4:15 AM 69.1 °F - 65.8 °F 89% 29.95 in 10.0 mi SSE 6.9 mph - N/A   Clear
4:35 AM 68.9 °F - 66.2 °F 91% 29.95 in 10.0 mi SSE 6.9 mph - N/A   Clear
4:55 AM 68.2 °F - 66.2 °F 93% 29.95 in 10.0 mi SSE 4.6 mph - N/A   Clear
5:15 AM 68.0 °F - 66.2 °F 94% 29.95 in 10.0 mi ESE 3.5 mph - N/A   Clear
5:35 AM 68.9 °F - 65.8 °F 90% 29.96 in 10.0 mi South 5.8 mph - N/A   Clear
5:55 AM 68.9 °F - 66.0 °F 90% 29.95 in 10.0 mi SSE 5.8 mph - N/A   Clear
6:15 AM 68.9 °F - 66.2 °F 91% 29.95 in 10.0 mi SSE 6.9 mph - N/A   Clear
6:35 AM 68.9 °F - 66.2 °F 91% 29.96 in 10.0 mi SE 6.9 mph - N/A   Clear
6:55 AM 69.8 °F - 66.2 °F 88% 29.97 in 10.0 mi SSE 5.8 mph - N/A   Clear
7:15 AM 69.8 °F - 66.4 °F 89% 29.96 in 10.0 mi SSE 6.9 mph - N/A   Clear
7:35 AM 69.8 °F - 66.4 °F 89% 29.97 in 10.0 mi SSE 6.9 mph - N/A   Clear
8:15 AM 70.5 °F - 66.6 °F 87% 29.97 in 10.0 mi SE 5.8 mph - N/A   Clear
8:35 AM 71.1 °F - 66.9 °F 87% 29.98 in 10.0 mi SSE 6.9 mph - N/A   Clear
8:55 AM 71.4 °F - 67.3 °F 87% 29.99 in 7.0 mi SSE 6.9 mph - N/A   Clear
9:15 AM 72.1 °F - 67.1 °F 84% 30.00 in 10.0 mi South 6.9 mph - N/A   Mostly Cloudy
9:55 AM 73.4 °F - 67.5 °F 82% 30.01 in 10.0 mi South 8.1 mph - N/A   Overcast
10:15 AM 73.8 °F - 67.5 °F 81% 30.01 in 10.0 mi South 4.6 mph - N/A   Overcast
10:35 AM 74.1 °F - 68.0 °F 81% 30.01 in 10.0 mi SW 3.5 mph - N/A   Overcast
10:55 AM 75.6 °F - 68.7 °F 79% 30.01 in 10.0 mi Calm Calm - N/A   Mostly Cloudy
11:15 AM 76.5 °F - 68.2 °F 75% 30.01 in 10.0 mi Calm Calm - N/A   Scattered Clouds
11:35 AM 78.3 °F - 68.7 °F 72% 30.00 in 10.0 mi WSW 3.5 mph - N/A   Clear
11:55 AM 79.5 °F - 68.7 °F 69% 30.00 in 10.0 mi SW 3.5 mph - N/A   Clear
12:15 PM 79.9 °F - 68.2 °F 67% 29.99 in 10.0 mi South 3.5 mph - N/A   Clear
12:35 PM 81.0 °F 83.8 °F 68.4 °F 65% 29.99 in 10.0 mi South 4.6 mph - N/A   Clear
12:55 PM 81.9 °F 85.2 °F 69.1 °F 65% 29.99 in 10.0 mi SSW 4.6 mph - N/A   Clear
1:15 PM 81.5 °F 84.8 °F 69.1 °F 66% 29.99 in 10.0 mi SW 5.8 mph - N/A   Clear
1:35 PM 82.8 °F 86.0 °F 68.4 °F 62% 29.98 in 10.0 mi SW 4.6 mph - N/A   Scattered Clouds
1:55 PM 82.6 °F 85.5 °F 67.8 °F 61% 29.98 in 10.0 mi SW 4.6 mph - N/A   Clear
2:15 PM 83.7 °F 87.0 °F 68.5 °F 60% 29.97 in 10.0 mi WSW 8.1 mph - N/A   Scattered Clouds
2:35 PM 82.8 °F 85.5 °F 67.5 °F 60% 29.97 in 10.0 mi WSW 3.5 mph - N/A   Mostly Cloudy
2:55 PM 82.6 °F 85.3 °F 67.6 °F 60% 29.96 in 10.0 mi WSW 8.1 mph - N/A   Overcast
3:15 PM 83.3 °F 86.6 °F 68.5 °F 61% 29.95 in 10.0 mi SW 5.8 mph - N/A   Mostly Cloudy
3:35 PM 83.5 °F 86.7 °F 68.2 °F 60% 29.96 in 10.0 mi WSW 5.8 mph - N/A   Scattered Clouds
3:55 PM 83.7 °F 87.0 °F 68.4 °F 60% 29.95 in 10.0 mi West 5.8 mph - N/A   Scattered Clouds
4:15 PM 83.7 °F 87.0 °F 68.5 °F 60% 29.96 in 10.0 mi WSW 6.9 mph - N/A   Mostly Cloudy
4:35 PM 84.4 °F 87.9 °F 68.7 °F 59% 29.96 in 10.0 mi West 4.6 mph - N/A   Scattered Clouds
4:55 PM 84.0 °F 87.6 °F 68.7 °F 60% 29.96 in 10.0 mi WSW 5.8 mph - N/A   Mostly Cloudy
5:15 PM 83.3 °F 86.9 °F 69.1 °F 62% 29.96 in 10.0 mi West 3.5 mph - N/A   Overcast
5:35 PM 82.8 °F 86.4 °F 69.3 °F 64% 29.96 in 10.0 mi West 3.5 mph - N/A   Mostly Cloudy
5:55 PM 82.4 °F 85.8 °F 69.3 °F 64% 29.95 in 10.0 mi Calm Calm - N/A   Scattered Clouds
6:15 PM 82.4 °F 85.6 °F 68.7 °F 63% 29.95 in 10.0 mi Calm Calm - N/A   Mostly Cloudy
6:35 PM 82.2 °F 85.5 °F 68.7 °F 64% 29.94 in 10.0 mi Calm Calm - N/A   Overcast
6:55 PM 81.9 °F 85.4 °F 69.6 °F 66% 29.94 in 10.0 mi Calm Calm - N/A   Mostly Cloudy
7:15 PM 80.2 °F 83.9 °F 71.4 °F 74% 29.94 in 10.0 mi SSE 3.5 mph - N/A   Scattered Clouds
7:35 PM 79.3 °F - 72.5 °F 79% 29.93 in 10.0 mi SE 3.5 mph - N/A   Clear
7:55 PM 77.9 °F - 72.5 °F 83% 29.93 in 10.0 mi ESE 4.6 mph - N/A   Clear
8:15 PM 77.0 °F - 72.7 °F 86% 29.93 in 10.0 mi SE 4.6 mph - N/A   Clear
8:35 PM 76.5 °F - 72.3 °F 87% 29.93 in 10.0 mi SE 3.5 mph - N/A   Clear
8:55 PM 76.3 °F - 71.8 °F 86% 29.93 in 10.0 mi SE 3.5 mph - N/A   Clear
9:15 PM 75.7 °F - 71.8 °F 87% 29.94 in 10.0 mi Calm Calm - N/A   Clear
9:35 PM 74.8 °F - 71.6 °F 90% 29.95 in 10.0 mi Calm Calm - N/A   Clear
9:55 PM 74.5 °F - 71.6 °F 91% 29.95 in 10.0 mi Calm Calm - N/A   Clear
10:15 PM 74.3 °F - 71.6 °F 91% 29.95 in 10.0 mi Calm Calm - N/A   Clear
10:35 PM 73.6 °F - 71.4 °F 93% 29.96 in 10.0 mi Calm Calm - N/A   Clear
10:55 PM 73.4 °F - 71.6 °F 94% 29.95 in 10.0 mi Calm Calm - N/A   Clear
11:15 PM 73.9 °F - 71.1 °F 91% 29.96 in 5.0 mi Calm Calm - N/A   Clear
11:35 PM 72.3 °F - 71.2 °F 96% 29.96 in 7.0 mi Calm Calm - N/A   Clear
11:55 PM 71.2 °F - 70.5 °F 98% 29.96 in 10.0 mi Calm Calm - N/A   Clear